Location: Oroua River
(40.4333°S, 175.4333°E)
Time: 15:00:35
(UTC+00:00)

FENGYUN 3A - Pass Details

Date: 03 February 2023
Orbit: 824 x 835 km, 98.5° (Epoch: 23 March)

Event Time Altitude Azimuth Distance (km) Brightness Sun altitude
Exits shadow 14:52:05 55° 280° (W) 1,009 3.8 -24.5°
Drops below altitude 10° 14:57:28 10° 202° (SSW) 2,479 6.5 -23.8°
Sets 14:59:54 0° 197° (SSW) 3,421 7.3 -23.5°
